CAPE
0 116 362 427 319 297 196 95 138 114 246 123 31 12 0 0 277 480 612 479 579 740 1018 1240 1415 1676 1747 1761 1906 1835 1670 1630
0 1 163 327 341 263 104 55 137 157 247 105 27 0 0 0 12 353 671 610 592 690 877 1114 1528 1689 1758 1816 1924 1833 1642 1550
0 0 10 134 249 271 122 223 108 151 150 91 28 0 0 0 0 57 494 671 643 742 766 1020 1375 1470 1711 1787 1822 1790 1664 1485
0 0 0 122 151 150 159 41 109 62 24 2 2 0 20 46 28 102 391 507 659 672 839 885 1210 1355 1586 1701 1733 1751 1664 1544
0 0 0 0 60 138 169 62 115 113 83 45 0 0 0 0 6 216 627 498 545 593 783 873 1132 1267 1436 1659 1642 1672 1697 1364
0 0 0 0 0 1 45 64 61 52 33 5 0 0 0 0 32 268 759 776 684 621 751 988 1157 1330 1416 1558 1571 1580 1626 1440
0 0 0 0 0 0 0 6 30 89 41 14 7 0 0 11 199 321 683 928 829 794 872 1205 1279 1465 1535 1521 1587 1520 1497 1454
0 0 0 0 0 0 0 0 0 3 4 19 3 0 0 2 60 420 574 709 991 1130 1188 1290 1380 1591 1614 1587 1541 1488 1626 1318
0 0 0 0 0 0 0 0 0 0 0 0 0 0 0 0 0 125 517 713 799 1119 1287 1342 1460 1654 1672 1613 1604 1646 1783 1443
2 0 0 0 0 0 0 0 0 0 0 0 0 0 0 0 1 218 468 824 943 1142 1381 1489 1491 1661 1689 1715 1764 1761 1821 1651
0 0 0 0 0 0 0 4 1 0 0 0 0 0 0 4 251 236 519 1002 1062 1259 1390 1595 1477 1728 1785 1744 1814 1881 1864 1621
0 0 0 6 0 0 0 2 0 28 253 560 651 119 0 645 470 634 698 782 940 874 1302 1558 1661 1698 1781 1840 1921 1918 1890 1578
0 0 0 0 0 0 0 5 0 3 278 803 1056 1139 898 539 588 932 1241 1297 1249 1267 1373 1561 1724 1687 1931 1957 1908 2010 2024 1987
0 0 0 0 0 0 0 0 0 0 156 694 1173 1303 1229 872 608 1120 1525 1749 1553 1503 1489 1647 1783 1843 2008 1908 2155 2212 2138 1929
0 0 0 0 0 0 0 0 0 0 45 447 984 1252 1321 1472 1140 774 1150 1780 1819 1700 1699 1792 1915 1915 1991 2233 2354 2294 1915 1857
0 0 0 0 0 0 0 0 0 0 0 0 164 656 835 1090 1273 1320 1000 1354 1837 1941 1988 2033 2058 2076 2165 2373 2517 2287 1914 2008
0 0 0 0 0 0 0 0 0 0 0 0 0 9 166 504 816 1189 1425 1362 1551 1838 2070 2252 2199 2228 2183 2474 2464 2352 2098 1970
0 0 0 0 0 0 0 0 0 0 0 0 0 0 0 0 149 362 864 1543 1762 1697 1951 2196 2243 2299 2248 2227 2422 2259 2149 1895
0 0 0 0 0 0 0 0 0 0 0 0 0 0 0 0 0 0 114 410 940 1877 2293 2157 879 1093 1896 2025 2184 2195 2076 1909
CIN
-0 -19 -2 -2 -2 -3 -9 -25 -6 -2 -5 -10 -33 -17 -0 -2 -26 -42 -72 -93 -93 -98 -84 -55 -50 -89 -73 -61 -48 -48 -53 -27
-0 -21 -13 -4 -7 -8 -31 -29 -7 -3 -8 -5 -13 -0 -0 -0 -46 -26 -63 -98 -78 -77 -88 -68 -62 -65 -62 -58 -56 -48 -38 -35
-0 -0 -37 -44 -17 -6 -25 -11 -23 -3 -3 -5 -27 -0 -0 -0 -0 -36 -54 -84 -99 -82 -86 -80 -74 -65 -65 -52 -44 -40 -37 -44
-0 -0 -0 -40 -37 -27 -25 -48 -11 -39 -32 -16 -11 -0 -36 -45 -46 -45 -61 -109 -127 -111 -83 -84 -88 -80 -82 -63 -39 -30 -34 -55
-0 -0 -0 -0 -70 -15 -5 -22 -21 -9 -6 -19 -0 -0 -0 -0 -55 -64 -96 -123 -117 -133 -122 -117 -102 -94 -81 -76 -42 -14 -28 -75
-0 -0 -0 -0 -0 -17 -28 -46 -41 -37 -15 -14 -0 -0 -0 -0 -64 -73 -101 -122 -128 -108 -124 -138 -140 -132 -105 -83 -47 -29 -34 -39
-0 -0 -0 -0 -0 -0 -0 -104 -65 -17 -5 -5 -4 -0 -0 -62 -55 -87 -111 -126 -130 -123 -131 -190 -198 -185 -157 -122 -71 -57 -55 -23
-0 -0 -0 -0 -0 -0 -0 -0 -0 -5 -34 -18 -16 -0 -0 -27 -31 -44 -68 -116 -132 -156 -146 -180 -211 -212 -181 -148 -120 -76 -55 -29
-0 -0 -0 -0 -0 -0 -0 -0 -0 -0 -0 -0 -0 -0 -0 -0 -0 -38 -54 -90 -150 -174 -185 -185 -210 -225 -195 -148 -106 -74 -46 -29
-5 -0 -0 -0 -0 -0 -0 -0 -0 -0 -0 -0 -0 -0 -0 -0 -6 -63 -78 -104 -151 -158 -176 -201 -209 -201 -170 -138 -97 -70 -46 -25
-0 -0 -0 -0 -0 -0 -0 -7 -7 -0 -0 -0 -0 -0 -0 -2 -88 -90 -94 -96 -156 -155 -146 -246 -234 -188 -165 -145 -114 -71 -53 -47
-0 -0 -0 -80 -0 -0 -0 -27 -0 -298 -178 -138 -91 -23 -2 -65 -114 -94 -98 -111 -154 -145 -161 -217 -178 -185 -176 -152 -138 -111 -90 -78
-0 -0 -0 -0 -0 -0 -0 -51 -0 -178 -275 -191 -113 -102 -116 -131 -117 -95 -123 -137 -182 -194 -169 -196 -191 -188 -162 -139 -158 -130 -96 -60
-0 -0 -0 -0 -0 -0 -0 -0 -0 -0 -370 -254 -176 -120 -107 -137 -137 -120 -103 -116 -183 -195 -212 -211 -209 -181 -146 -147 -136 -108 -101 -83
-0 -0 -0 -0 -0 -0 -0 -0 -0 -0 -283 -308 -194 -163 -148 -134 -139 -140 -138 -106 -113 -133 -190 -201 -216 -177 -126 -137 -148 -126 -127 -91
-0 -0 -0 -0 -0 -0 -0 -0 -0 -0 -0 -0 -330 -231 -229 -202 -209 -190 -140 -127 -101 -100 -114 -161 -206 -192 -129 -114 -131 -140 -126 -92
-0 -0 -0 -0 -0 -0 -0 -0 -0 -0 -0 -0 -0 -117 -373 -321 -335 -293 -217 -163 -144 -95 -81 -118 -157 -155 -128 -113 -137 -138 -133 -89
-0 -0 -0 -0 -0 -0 -0 -0 -0 -0 -0 -0 -0 -0 -0 -9 -502 -471 -374 -249 -178 -141 -118 -101 -129 -141 -110 -74 -113 -118 -134 -105
-0 -0 -0 -0 -0 -0 -0 -0 -0 -0 -0 -0 -0 -0 -0 -0 -0 -0 -526 -471 -340 -141 -90 -123 -312 -226 -128 -16 -91 -83 -101 -102
Wind_Speed
11 16 16 11 15 20 24 26 23 22 20 24 14 18 20 23 17 15 11 8 9 12 15 15 17 20 17 15 14 9 9 8
16 20 17 24 16 14 12 24 24 19 21 18 17 21 24 26 22 14 11 8 7 10 14 17 18 18 17 16 15 11 8 7
10 10 10 12 15 19 28 21 26 25 19 15 18 24 26 27 26 19 10 7 7 11 13 16 18 18 18 17 15 12 10 7
13 13 10 13 8 9 8 9 14 26 28 21 21 26 28 29 27 21 13 7 4 7 12 15 15 17 17 17 15 12 9 6
23 11 16 19 17 20 26 19 32 28 26 21 27 29 28 29 27 22 16 8 4 5 9 12 13 12 14 13 13 9 6 4
24 23 18 14 21 16 14 15 11 5 30 28 28 27 27 28 26 19 15 12 4 2 7 8 9 9 11 10 10 8 6 5
28 31 25 25 17 18 16 33 15 36 29 29 29 29 29 29 26 21 15 12 9 3 4 9 10 11 9 9 9 9 6 4
32 30 29 24 23 18 14 12 16 41 38 36 35 28 28 28 26 24 16 10 10 7 5 11 11 10 9 9 8 9 6 4
25 21 25 26 25 26 24 26 28 34 35 33 32 31 32 33 33 30 23 10 5 4 4 10 12 10 9 7 8 8 6 3
20 13 18 25 20 18 25 33 27 34 37 36 35 34 35 37 36 34 29 16 8 3 6 10 12 12 8 7 8 9 9 8
22 19 22 13 18 20 21 22 24 30 32 31 31 33 36 30 31 33 31 18 3 4 5 8 16 14 9 9 12 12 11 9
22 29 34 16 21 22 18 15 23 24 24 27 29 32 33 36 38 33 27 18 4 2 6 10 15 14 9 12 14 13 12 11
22 31 24 22 23 19 16 21 26 26 26 27 28 31 37 36 33 28 24 19 12 3 6 11 15 13 9 13 15 16 15 11
29 33 28 26 19 21 22 24 26 27 27 28 29 32 33 32 30 26 23 19 12 4 4 10 14 13 10 13 14 15 18 16
22 20 16 16 15 18 22 24 26 27 28 29 30 30 31 31 29 28 24 19 12 5 2 8 12 14 10 10 12 12 15 18
23 19 18 17 18 21 23 24 26 28 29 29 30 30 31 29 29 27 25 20 14 7 1 2 9 10 7 7 10 8 9 10
23 20 24 19 23 27 27 28 29 30 30 30 30 30 29 28 28 27 25 23 20 16 8 11 8 10 15 6 9 9 8 8
24 22 24 26 31 31 30 33 33 33 34 31 30 30 29 28 27 26 24 24 23 20 16 13 9 13 22 19 10 10 9 11
25 28 30 31 30 30 36 37 36 36 35 35 32 30 29 28 26 25 23 23 22 21 18 13 11 21 29 30 21 20 9 10
Wind_Direction
251 265 274 289 284 287 293 294 305 305 313 311 348 345 351 346 1 19 34 100 125 143 153 159 165 171 172 171 172 172 171 164
269 262 270 269 299 294 300 293 299 311 310 307 321 325 331 332 346 14 24 62 118 140 149 156 163 166 169 171 174 172 171 172
264 242 226 267 275 280 279 297 291 298 313 326 319 300 309 311 328 345 31 72 112 142 147 154 159 161 164 166 168 169 171 173
275 269 259 271 258 242 275 298 308 291 286 299 310 313 320 315 319 340 10 47 85 137 153 155 157 161 163 167 169 170 168 173
266 276 279 270 273 279 279 289 273 283 285 301 295 303 310 313 320 330 346 23 69 128 154 161 163 162 161 162 166 166 169 180
265 273 274 268 271 268 267 274 288 260 283 289 289 294 308 325 326 343 354 355 20 105 156 159 158 164 161 163 162 164 168 173
268 267 272 273 274 271 269 224 232 249 280 281 291 293 294 309 334 342 358 359 356 358 157 157 154 156 159 157 160 162 168 175
265 267 267 272 274 279 276 263 224 252 244 260 270 290 290 297 326 336 352 5 348 344 151 163 163 155 154 153 154 159 164 171
277 276 271 272 271 275 281 281 281 274 232 268 282 283 284 292 302 309 329 358 14 348 163 170 162 159 153 145 143 150 154 159
283 292 280 282 283 275 240 265 275 267 254 265 278 284 288 289 298 299 306 331 356 86 149 165 161 157 147 136 136 138 136 131
274 283 281 317 298 293 289 287 297 281 277 282 286 287 281 305 306 302 298 319 22 90 138 157 163 155 148 134 133 132 129 117
279 272 264 307 300 297 299 294 304 302 297 296 297 285 283 308 300 299 298 310 359 60 135 152 158 156 153 144 146 136 133 130
280 273 285 299 299 300 289 297 301 300 302 301 298 298 290 297 303 298 300 304 326 36 130 151 154 157 161 150 155 148 137 129
274 271 275 295 299 289 297 300 303 303 304 304 305 308 310 307 298 302 302 307 322 0 110 142 154 160 163 159 151 145 145 143
283 290 302 314 313 311 307 303 304 306 304 304 306 312 311 310 301 291 299 308 320 348 97 141 157 165 165 162 152 149 150 154
286 292 297 308 314 312 312 310 310 309 308 306 305 309 309 313 310 301 296 300 306 314 314 207 160 172 201 174 160 170 166 166
287 293 293 293 304 305 305 307 307 307 307 307 304 306 310 310 312 309 300 291 292 294 295 277 269 263 259 229 177 175 176 191
288 301 296 295 299 301 300 299 301 301 300 303 305 301 305 309 311 313 308 291 286 292 288 284 274 271 262 263 250 191 187 185
293 297 296 297 301 302 298 297 297 296 295 294 297 299 298 303 307 308 312 303 294 290 293 289 264 280 269 255 259 257 208 229